Location: Katowice
(50.2611°N, 19.0242°E)
Time: 22:32:42
(UTC+02:00)

A-11 Canister half - Pass Details

Date: 21 July 2019
Orbit: 1526 x 1682 km, 47.3° (Epoch: 24 August)

Event Time Altitude Azimuth Distance (km) Brightness Sun altitude
Rises 00:33:38 0° 267° (W) 4,882 11.7 -19.1°
Reaches altitude 10° 00:36:48 10° 266° (W) 3,876 11.1 -19.1°
Maximum altitude 00:46:39 76° 184° (S) 1,645 8.9 -19.2°
Drops below altitude 10° 00:56:09 10° 101° (E) 3,751 10.9 -19.2°
Sets 00:59:10 0° 100° (E) 4,717 11.5 -19.1°
